STARLINK-4213, 52872

Orbit data source: Space-Track

STARLINK-4213, 52872 is a payload satellite owned by SpaceX/Seattle (US) in LEO that was launched on Fri, 17 Jun 2022 UTC via an FALCON 9 launch vehicle from the Air Force Eastern Test Range (AFETR). Payload-class satellites include a variety of spacecraft equipped with specific instruments for various scientific and technological missions. These include communications satellites like Starlink; space stations such as the ISS; scientific satellites like the Hubble; Earth observation satellites from companies like Planet Labs, Umbra, and HawkEye 360; GPS; miniature CubeSats for education and research; and military/defense satellites.

Loading next visibility...
Identifier
52872, 2022-062AU
Orbit
LEO
Country
Flag of USUS
Related business
Manufacturer
SpaceX/Seattle
Mission
Operational Commercial Communications
Bus & Motor
STARLINK, Unknown motor
Mass
297 kg wet, ~275 kg dry
Launch date (UTC)
2022-06-17 (3 years ago)
Launch vehicle
FALCON 9
Launch site
Air Force Eastern Test Range (AFETR)
Object type
Payload
Rocket body
Debris
Shape & HBR
Box + 1 Pan, 10.1 m
Radar Cross Section
13.562 m², Large (>1 m²)

Expand to show TLE details & history
Last TLE update: 18 hours ago

TLE from 18 hours ago
0 STARLINK-4213
1 52872U 22062AU  25349.31153139  .00000469  00000-0  47570-4 0  9991
2 52872  53.2191  32.8795 0001495  92.3844 267.7319 15.08840698193322
Epoch: 2025-12-15T07:28Z
TLE epoch observation values (Epoch: 2025-12-15T07:28:36.312Z)
Latitude
-0.00003°
Longitude
-163.48374°
Altitude
540.68 km
Speed
7.593 km/s
True Right ascension
02h 11m 31s
True Declination
0° 00' 00"
Sunlit
Object was in full shadow at epoch
Visualization orbit readout
Latitude
Unknown
Longitude
Unknown
Altitude
Unknown
Speed
Unknown
Apparent Right ascension
Unknown
Apparent Declination
Unknown
Sunlit
N/A
Visualization observer readout
Local Sidereal Time
00:26:42
Azimuth
Unknown
Elevation
Unknown
Doppler factor
Unknown
Orbital elements
Apogee altitude
541.02 km
Perigee altitude
538.952 km
Semi-major axis
6,918.123 km
Eccentricity
0.00015
Inclination
53.2191°
RAAN
32.8795°
Arg. of periapsis
92.3844°
True anomaly
267.71478°
Mean anomaly
267.7319°
Eccentric anomaly
267.72334°
Mean motion
3.77191 °/min
Orbital period
95.44 mins
BSTAR
0.00004757
Loading maneuver chart data...
Computing Atmospheric mass density...
Loading historical data...
Loading historical data...
Loading historical data...
Loading historical data...
Loading historical data...
Loading historical data...
Loading historical data...

Documentation

Showing up to 5 results
|